Kosmos-1556

operational
NORAD ID: 14979 Int'l Des: 1984-047 Owner: GUKOS Country: SU
MEOCIRCULAR

Kosmos-1556について

説明を読み込み中...

リアルタイム位置

3D地球を読み込み中...

次回通過

高度履歴

Altitude vs Time

uPlot chart will show altitude changes over time

軌道要素

1 14979U 84047C 25344.21413172 -.00000053 00000-0 00000-0 0 9991
2 14979 66.4965 335.9205 0010167 198.0596 239.0209 2.12912256323078
Epoch: Dec 10, 2025 • Age: 213 hours

現在のステータス

高度 19172.0 km
速度 3.95 km/s
衛星直下点 28.89°N, 126.87°W
打ち上げ日 May 19, 1984
運用期間 41.5 years
タイプ other

技術仕様

分類 Payload
質量 1300.00 kg
乾燥質量 1200.00 kg
総質量 1300.00 kg
長さ 4.00 m
直径 1.50 m
スパン 7.80 m
形状 Cyl + Ant + 2 Pan
製造者 OAZ
バスタイプ Uragan
フェーズステータス In Orbit
所有者/国 GUKOS/SU

大規模コンステレーション

Loading constellations...